| time (UTC) | temp F | wind direction | speed MPH | gust MPH | rain 1hr in | rain 24hr in | rain mn in | humidity % | barometer mb |
| 20260901231206 | 84 | 240 | 0.0 | 1.0 | 0.00 | 0.00 | 0.00 | 67 | 1051.7 |
| 20260901230701 | 84 | 67 | 2.0 | 2.0 | 0.00 | 0.00 | 0.00 | 66 | 1051.6 |
| 20260901230155 | 84 | 216 | 0.0 | 1.0 | 0.00 | 0.00 | 0.00 | 65 | 1051.7 |
| 20260901225650 | 84 | 258 | 0.0 | 1.0 | 0.00 | 0.00 | 0.00 | 65 | 1051.5 |
| 20260901225145 | 84 | 268 | 1.0 | 1.0 | 0.00 | 0.00 | 0.00 | 64 | 1051.8 |
| 20260901224641 | 85 | 283 | 1.0 | 2.0 | 0.00 | 0.00 | 0.00 | 61 | 1051.6 |
| 20260901224137 | 86 | 53 | 2.0 | 3.0 | 0.00 | 0.00 | 0.00 | 59 | 1051.9 |
| 20260901223632 | 87 | 119 | 1.0 | 2.0 | 0.00 | 0.00 | 0.00 | 58 | 1051.7 |
| 20260901223127 | 86 | 252 | 1.0 | 2.0 | 0.00 | 0.00 | 0.00 | 57 | 1051.8 |
| 20260901222624 | 86 | 234 | 0.0 | 3.0 | 0.00 | 0.00 | 0.00 | 59 | 1051.9 |
| 20260901222119 | 86 | 224 | 0.0 | 1.0 | 0.00 | 0.00 | 0.00 | 58 | 1051.8 |
| 20260901221615 | 85 | 307 | 1.0 | 3.0 | 0.00 | 0.00 | 0.00 | 61 | 1051.8 |
| 20260901221111 | 85 | 346 | 1.0 | 3.0 | 0.00 | 0.00 | 0.00 | 65 | 1051.9 |
| 20260901220610 | 85 | 148 | 3.0 | 3.0 | 0.00 | 0.00 | 0.00 | 64 | 1051.7 |
| 20260901220109 | 85 | 339 | 1.0 | 3.0 | 0.00 | 0.00 | 0.00 | 65 | 1051.9 |
| 20260901215607 | 85 | 339 | 2.0 | 3.0 | 0.00 | 0.00 | 0.00 | 63 | 1051.9 |
| 20260901215102 | 84 | 57 | 1.0 | 2.0 | 0.00 | 0.00 | 0.00 | 64 | 1052.2 |
| 20260901214601 | 85 | 268 | 1.0 | 1.0 | 0.00 | 0.00 | 0.00 | 65 | 1052.2 |
| 20260901214101 | 85 | 232 | 0.0 | 1.0 | 0.00 | 0.00 | 0.00 | 63 | 1051.9 |
| 20260901213555 | 86 | 272 | 0.0 | 1.0 | 0.00 | 0.00 | 0.00 | 62 | 1051.8 |
| 20260901213049 | 85 | 193 | 3.0 | 3.0 | 0.00 | 0.00 | 0.00 | 62 | 1051.8 |
| 20260901212544 | 86 | 327 | 1.0 | 3.0 | 0.00 | 0.00 | 0.00 | 65 | 1051.9 |
| 20260901212040 | 87 | 42 | 2.0 | 3.0 | 0.00 | 0.00 | 0.00 | 60 | 1051.8 |
| 20260901211535 | 88 | 58 | 2.0 | 6.0 | 0.00 | 0.00 | 0.00 | 60 | 1051.8 |
| 20260901211032 | 87 | 199 | 1.0 | 3.0 | 0.00 | 0.00 | 0.00 | 60 | 1051.7 |
| 20260901210526 | 87 | 175 | 2.0 | 3.0 | 0.00 | 0.00 | 0.00 | 59 | 1051.9 |
| 20260901210023 | 87 | 77 | 1.0 | 7.0 | 0.00 | 0.00 | 0.00 | 60 | 1051.8 |
| 20260901205517 | 86 | 201 | 1.0 | 3.0 | 0.00 | 0.00 | 0.00 | 61 | 1051.8 |
| 20260901205012 | 86 | 118 | 3.0 | 4.0 | 0.00 | 0.00 | 0.00 | 59 | 1052.0 |
| 20260901204509 | 86 | 81 | 4.0 | 6.0 | 0.00 | 0.00 | 0.00 | 60 | 1052.3 |
| 20260901204008 | 87 | 302 | 3.0 | 6.0 | 0.00 | 0.00 | 0.00 | 59 | 1052.2 |
| 20260901203503 | 87 | 130 | 1.0 | 3.0 | 0.00 | 0.00 | 0.00 | 60 | 1051.9 |
| 20260901202958 | 87 | 235 | 1.0 | 3.0 | 0.00 | 0.00 | 0.00 | 61 | 1052.2 |
| 20260901202453 | 86 | 190 | 3.0 | 3.0 | 0.00 | 0.00 | 0.00 | 59 | 1052.0 |
| 20260901201949 | 87 | 235 | 2.0 | 4.0 | 0.00 | 0.00 | 0.00 | 59 | 1052.5 |
| 20260901201443 | 87 | 213 | 3.0 | 3.0 | 0.00 | 0.00 | 0.00 | 59 | 1052.3 |
| 20260901200938 | 86 | 222 | 2.0 | 3.0 | 0.00 | 0.00 | 0.00 | 59 | 1052.5 |
| 20260901200433 | 86 | 238 | 1.0 | 3.0 | 0.00 | 0.00 | 0.00 | 61 | 1052.5 |
| 20260901195931 | 86 | 230 | 1.0 | 4.0 | 0.00 | 0.00 | 0.00 | 59 | 1052.8 |
| 20260901195425 | 85 | 227 | 3.0 | 4.0 | 0.00 | 0.00 | 0.00 | 60 | 1052.7 |
| 20260901194920 | 85 | 169 | 2.0 | 4.0 | 0.00 | 0.00 | 0.00 | 61 | 1052.7 |
| 20260901194414 | 86 | 227 | 2.0 | 3.0 | 0.00 | 0.00 | 0.00 | 60 | 1052.8 |
| 20260901193910 | 86 | 196 | 3.0 | 7.0 | 0.00 | 0.00 | 0.00 | 60 | 1052.8 |
| 20260901193409 | 86 | 187 | 1.0 | 4.0 | 0.00 | 0.00 | 0.00 | 61 | 1052.8 |
| 20260901192904 | 86 | 246 | 2.0 | 6.0 | 0.00 | 0.00 | 0.00 | 60 | 1052.9 |
| 20260901192400 | 86 | 146 | 1.0 | 4.0 | 0.00 | 0.00 | 0.00 | 55 | 1052.7 |
| 20260901191856 | 86 | 296 | 1.0 | 3.0 | 0.00 | 0.00 | 0.00 | 58 | 1052.6 |
| 20260901191351 | 86 | 227 | 0.0 | 2.0 | 0.00 | 0.00 | 0.00 | 60 | 1052.9 |
| 20260901190847 | 86 | 356 | 2.0 | 4.0 | 0.00 | 0.00 | 0.00 | 58 | 1052.9 |
| 20260901190346 | 87 | 209 | 2.0 | 3.0 | 0.00 | 0.00 | 0.00 | 58 | 1053.0 |
| 20260901185844 | 87 | 252 | 3.0 | 6.0 | 0.00 | 0.00 | 0.00 | 56 | 1053.1 |
| 20260901185338 | 87 | 70 | 4.0 | 6.0 | 0.00 | 0.00 | 0.00 | 53 | 1053.0 |
| 20260901184834 | 86 | 174 | 1.0 | 2.0 | 0.00 | 0.00 | 0.00 | 54 | 1052.7 |
| 20260901184330 | 85 | 246 | 1.0 | 2.0 | 0.00 | 0.00 | 0.00 | 55 | 1052.5 |
| 20260901183825 | 86 | 27 | 3.0 | 4.0 | 0.00 | 0.00 | 0.00 | 53 | 1052.5 |
| 20260901183324 | 87 | 336 | 0.0 | 1.0 | 0.00 | 0.00 | 0.00 | 53 | 1053.2 |
| 20260901182821 | 88 | 211 | 4.0 | 6.0 | 0.00 | 0.00 | 0.00 | 51 | 1053.5 |
| 20260901182320 | 91 | 196 | 1.0 | 3.0 | 0.00 | 0.00 | 0.00 | 50 | 1053.8 |
| 20260901181815 | 89 | 224 | 0.0 | 1.0 | 0.00 | 0.00 | 0.00 | 50 | 1053.7 |
| 20260901181315 | 88 | 211 | 1.0 | 3.0 | 0.00 | 0.00 | 0.00 | 55 | 1053.6 |
| 20260901180809 | 87 | 239 | 0.0 | 2.0 | 0.00 | 0.00 | 0.00 | 47 | 1053.5 |
| 20260901180308 | 88 | 155 | 1.0 | 1.0 | 0.00 | 0.00 | 0.00 | 56 | 1053.5 |
| 20260901175807 | 87 | 90 | 3.0 | 4.0 | 0.00 | 0.00 | 0.00 | 54 | 1053.5 |
| 20260901175305 | 88 | 15 | 3.0 | 3.0 | 0.00 | 0.00 | 0.00 | 55 | 1053.6 |
| 20260901174757 | 87 | 224 | 0.0 | 2.0 | 0.00 | 0.00 | 0.00 | 61 | 1053.8 |
| 20260901174253 | 87 | 256 | 2.0 | 4.0 | 0.00 | 0.00 | 0.00 | 60 | 1053.7 |
| 20260901173748 | 87 | 226 | 0.0 | 2.0 | 0.00 | 0.00 | 0.00 | 57 | 1053.7 |
| 20260901173243 | 87 | 323 | 2.0 | 2.0 | 0.00 | 0.00 | 0.00 | 56 | 1053.8 |
| 20260901172740 | 88 | 173 | 0.0 | 1.0 | 0.00 | 0.00 | 0.00 | 55 | 1053.6 |
| 20260901172238 | 87 | 242 | 1.0 | 1.0 | 0.00 | 0.00 | 0.00 | 56 | 1053.5 |
| 20260901171737 | 88 | 278 | 0.0 | 2.0 | 0.00 | 0.00 | 0.00 | 58 | 1053.6 |
| 20260901171236 | 87 | 211 | 0.0 | 0.0 | 0.00 | 0.00 | 0.00 | 50 | 1053.6 |
| 20260901170735 | 87 | 40 | 2.0 | 4.0 | 0.00 | 0.00 | 0.00 | 49 | 1053.7 |
| 20260901170230 | 87 | 150 | 2.0 | 2.0 | 0.00 | 0.00 | 0.00 | 58 | 1053.6 |
| 20260901165728 | 86 | 329 | 1.0 | 2.0 | 0.00 | 0.00 | 0.00 | 56 | 1053.6 |
| 20260901165223 | 86 | 93 | 2.0 | 2.0 | 0.00 | 0.00 | 0.00 | 49 | 1053.7 |
| 20260901164720 | 86 | 216 | 1.0 | 2.0 | 0.00 | 0.00 | 0.00 | 57 | 1053.6 |
| 20260901164215 | 86 | 213 | 0.0 | 1.0 | 0.00 | 0.00 | 0.00 | 58 | 1053.7 |
| 20260901163710 | 86 | 277 | 1.0 | 2.0 | 0.00 | 0.00 | 0.00 | 56 | 1053.5 |
| 20260901163209 | 85 | 242 | 0.0 | 1.0 | 0.00 | 0.00 | 0.00 | 58 | 1053.6 |
| 20260901162705 | 85 | 40 | 1.0 | 2.0 | 0.00 | 0.00 | 0.00 | 64 | 1053.6 |
| 20260901162204 | 84 | 298 | 1.0 | 2.0 | 0.00 | 0.00 | 0.00 | 63 | 1053.7 |
| 20260901161703 | 84 | 266 | 1.0 | 2.0 | 0.00 | 0.00 | 0.00 | 71 | 1053.6 |
| 20260901161202 | 84 | 171 | 0.0 | 1.0 | 0.00 | 0.00 | 0.00 | 74 | 1053.8 |
| 20260901160659 | 83 | 230 | 0.0 | 0.0 | 0.00 | 0.00 | 0.00 | 74 | 1053.7 |
| 20260901160154 | 84 | 223 | 1.0 | 1.0 | 0.00 | 0.00 | 0.00 | 72 | 1053.8 |
| 20260901155653 | 83 | 245 | 1.0 | 1.0 | 0.00 | 0.00 | 0.00 | 78 | 1053.7 |
| 20260901155148 | 83 | 225 | 0.0 | 1.0 | 0.00 | 0.00 | 0.00 | 76 | 1053.7 |
| 20260901154643 | 84 | 262 | 1.0 | 1.0 | 0.00 | 0.00 | 0.00 | 75 | 1053.7 |
| 20260901154132 | 84 | 240 | 0.0 | 1.0 | 0.00 | 0.00 | 0.00 | 73 | 1053.7 |
| 20260901153628 | 82 | 225 | 0.0 | 2.0 | 0.00 | 0.00 | 0.00 | 75 | 1053.6 |
| 20260901153126 | 82 | 4 | 1.0 | 2.0 | 0.00 | 0.00 | 0.00 | 77 | 1053.6 |
| 20260901152622 | 82 | 233 | 0.0 | 1.0 | 0.00 | 0.00 | 0.00 | 80 | 1053.6 |
| 20260901152115 | 81 | 214 | 1.0 | 1.0 | 0.00 | 0.00 | 0.00 | 80 | 1053.6 |
| 20260901151611 | 82 | 238 | 0.0 | 1.0 | 0.00 | 0.00 | 0.00 | 78 | 1053.5 |
| 20260901151110 | 81 | 238 | 1.0 | 1.0 | 0.00 | 0.00 | 0.00 | 79 | 1053.7 |
| 20260901150609 | 79 | 215 | 0.0 | 1.0 | 0.00 | 0.00 | 0.00 | 79 | 1053.4 |
| 20260901150107 | 80 | 281 | 0.0 | 1.0 | 0.00 | 0.00 | 0.00 | 79 | 1053.5 |
| 20260901145601 | 81 | 229 | 0.0 | 1.0 | 0.00 | 0.00 | 0.00 | 81 | 1053.7 |
| 20260901145059 | 81 | 229 | 0.0 | 1.0 | 0.00 | 0.00 | 0.00 | 80 | 1053.7 |
| 20260901144550 | 80 | 210 | 0.0 | 1.0 | 0.00 | 0.00 | 0.00 | 80 | 1053.6 |
| 20260901144044 | 80 | 196 | 1.0 | 1.0 | 0.00 | 0.00 | 0.00 | 81 | 1053.5 |
| 20260901143540 | 78 | 210 | 0.0 | 1.0 | 0.00 | 0.00 | 0.00 | 85 | 1053.9 |
| 20260901143031 | 76 | 206 | 0.0 | 1.0 | 0.00 | 0.00 | 0.00 | 88 | 1053.8 |
| 20260901142526 | 75 | 169 | 0.0 | 2.0 | 0.00 | 0.00 | 0.00 | 89 | 1053.8 |
| 20260901142021 | 75 | 302 | 1.0 | 1.0 | 0.00 | 0.00 | 0.00 | 89 | 1053.9 |
| 20260901141521 | 74 | 253 | 0.0 | 1.0 | 0.00 | 0.00 | 0.00 | 92 | 1053.9 |
| 20260901141016 | 72 | 212 | 0.0 | 0.0 | 0.00 | 0.00 | 0.00 | 98 | 1053.9 |
| 20260901140514 | 71 | 280 | 1.0 | 2.0 | 0.00 | 0.00 | 0.00 | 99 | 1053.8 |
| 20260901140009 | 70 | 295 | 0.0 | 1.0 | 0.00 | 0.00 | 0.00 | 99 | 1053.9 |
| 20260901135508 | 69 | 277 | 0.0 | 1.0 | 0.00 | 0.00 | 0.00 | 99 | 1053.8 |
| 20260901135004 | 68 | 280 | 0.0 | 0.0 | 0.00 | 0.00 | 0.00 | 99 | 1053.9 |
| 20260901134459 | 68 | 257 | 0.0 | 0.0 | 0.00 | 0.00 | 0.00 | 99 | 1053.8 |
| 20260901133954 | 68 | 240 | 0.0 | 0.0 | 0.00 | 0.00 | 0.00 | 99 | 1053.7 |
| 20260901133453 | 68 | 241 | 0.0 | 0.0 | 0.00 | 0.00 | 0.00 | 99 | 1053.7 |
| 20260901132951 | 68 | 243 | 0.0 | 0.0 | 0.00 | 0.00 | 0.00 | 99 | 1053.6 |
| 20260901132452 | 69 | 223 | 0.0 | 0.0 | 0.00 | 0.00 | 0.00 | 99 | 1053.9 |
| 20260901131951 | 69 | 225 | 0.0 | 0.0 | 0.00 | 0.00 | 0.00 | 99 | 1053.9 |
| 20260901131450 | 68 | 225 | 0.0 | 0.0 | 0.00 | 0.00 | 0.00 | 99 | 1054.0 |
| 20260901130946 | 67 | 226 | 0.0 | 0.0 | 0.00 | 0.00 | 0.00 | 99 | 1054.0 |
| 20260901130441 | 66 | 239 | 0.0 | 0.0 | 0.00 | 0.00 | 0.00 | 99 | 1053.8 |
| 20260901125939 | 66 | 239 | 0.0 | 0.0 | 0.00 | 0.00 | 0.00 | 99 | 1053.9 |
| 20260901125438 | 65 | 239 | 0.0 | 0.0 | 0.00 | 0.00 | 0.00 | 99 | 1053.7 |
| 20260901124933 | 65 | 232 | 0.0 | 0.0 | 0.00 | 0.00 | 0.00 | 99 | 1053.8 |
| 20260901124428 | 65 | 232 | 0.0 | 0.0 | 0.00 | 0.00 | 0.00 | 99 | 1053.8 |
| 20260901123923 | 65 | 255 | 0.0 | 1.0 | 0.00 | 0.00 | 0.00 | 99 | 1053.8 |
| 20260901123418 | 65 | 229 | 0.0 | 0.0 | 0.00 | 0.00 | 0.00 | 99 | 1053.7 |
| 20260901122916 | 65 | 241 | 0.0 | 0.0 | 0.00 | 0.00 | 0.00 | 99 | 1053.6 |
| 20260901122411 | 64 | 231 | 0.0 | 0.0 | 0.00 | 0.00 | 0.00 | 99 | 1053.5 |
| 20260901121910 | 64 | 227 | 0.0 | 0.0 | 0.00 | 0.00 | 0.00 | 99 | 1053.6 |
| 20260901121406 | 64 | 242 | 0.0 | 0.0 | 0.00 | 0.00 | 0.00 | 99 | 1053.5 |
| 20260901120901 | 64 | 234 | 0.0 | 0.0 | 0.00 | 0.00 | 0.00 | 99 | 1053.6 |
| 20260901120400 | 65 | 247 | 0.0 | 0.0 | 0.00 | 0.00 | 0.00 | 99 | 1053.6 |
| 20260901115856 | 65 | 233 | 0.0 | 0.0 | 0.00 | 0.00 | 0.00 | 99 | 1053.7 |
| 20260901115355 | 65 | 244 | 0.0 | 0.0 | 0.00 | 0.00 | 0.00 | 99 | 1053.5 |
| 20260901114854 | 65 | 224 | 0.0 | 0.0 | 0.00 | 0.00 | 0.00 | 99 | 1053.5 |
| 20260901114349 | 65 | 237 | 0.0 | 0.0 | 0.00 | 0.00 | 0.00 | 99 | 1053.4 |
| 20260901113847 | 65 | 217 | 0.0 | 0.0 | 0.00 | 0.00 | 0.00 | 99 | 1053.3 |
| 20260901113346 | 64 | 225 | 0.0 | 0.0 | 0.00 | 0.00 | 0.00 | 99 | 1053.4 |
| 20260901112842 | 64 | 225 | 0.0 | 0.0 | 0.00 | 0.00 | 0.00 | 99 | 1053.4 |
| 20260901112342 | 64 | 225 | 0.0 | 0.0 | 0.00 | 0.00 | 0.00 | 99 | 1053.2 |
| 20260901111836 | 64 | 225 | 0.0 | 0.0 | 0.00 | 0.00 | 0.00 | 99 | 1053.1 |
| 20260901111335 | 64 | 225 | 0.0 | 0.0 | 0.00 | 0.00 | 0.00 | 99 | 1053.1 |
| 20260901110834 | 64 | 225 | 0.0 | 0.0 | 0.00 | 0.00 | 0.00 | 99 | 1052.9 |
| 20260901110330 | 64 | 225 | 0.0 | 0.0 | 0.00 | 0.00 | 0.00 | 99 | 1052.9 |
| 20260901105826 | 64 | 225 | 0.0 | 0.0 | 0.00 | 0.00 | 0.00 | 99 | 1052.8 |
| 20260901105321 | 64 | 226 | 0.0 | 0.0 | 0.00 | 0.00 | 0.00 | 99 | 1052.6 |
| 20260901104817 | 65 | 226 | 0.0 | 0.0 | 0.00 | 0.00 | 0.00 | 99 | 1052.9 |
| 20260901104311 | 65 | 225 | 0.0 | 0.0 | 0.00 | 0.00 | 0.00 | 99 | 1052.8 |
| 20260901103807 | 65 | 224 | 0.0 | 0.0 | 0.00 | 0.00 | 0.00 | 99 | 1052.9 |
| 20260901103301 | 65 | 230 | 0.0 | 0.0 | 0.00 | 0.00 | 0.00 | 99 | 1052.9 |
| 20260901102756 | 65 | 231 | 0.0 | 0.0 | 0.00 | 0.00 | 0.00 | 99 | 1052.9 |
| 20260901102256 | 64 | 233 | 0.0 | 0.0 | 0.00 | 0.00 | 0.00 | 99 | 1053.1 |
| 20260901101751 | 64 | 233 | 0.0 | 0.0 | 0.00 | 0.00 | 0.00 | 99 | 1052.9 |
| 20260901101246 | 64 | 233 | 0.0 | 0.0 | 0.00 | 0.00 | 0.00 | 99 | 1052.9 |
| 20260901100745 | 65 | 244 | 0.0 | 0.0 | 0.00 | 0.00 | 0.00 | 99 | 1053.1 |
| 20260901100240 | 65 | 226 | 0.0 | 0.0 | 0.00 | 0.00 | 0.00 | 99 | 1052.9 |
| 20260901095739 | 65 | 226 | 0.0 | 0.0 | 0.00 | 0.00 | 0.00 | 99 | 1053.1 |
| 20260901095236 | 65 | 226 | 0.0 | 0.0 | 0.00 | 0.00 | 0.00 | 99 | 1053.0 |
| 20260901094731 | 65 | 226 | 0.0 | 0.0 | 0.00 | 0.00 | 0.00 | 99 | 1053.1 |
| 20260901094226 | 65 | 224 | 0.0 | 0.0 | 0.00 | 0.00 | 0.00 | 99 | 1052.9 |
| 20260901093721 | 65 | 243 | 0.0 | 0.0 | 0.00 | 0.00 | 0.00 | 99 | 1052.8 |
| 20260901093220 | 65 | 231 | 0.0 | 0.0 | 0.00 | 0.00 | 0.00 | 99 | 1052.9 |
| 20260901092716 | 66 | 229 | 0.0 | 0.0 | 0.00 | 0.00 | 0.00 | 99 | 1053.0 |
| 20260901092212 | 66 | 229 | 0.0 | 0.0 | 0.00 | 0.00 | 0.00 | 99 | 1052.7 |
| 20260901091707 | 66 | 229 | 0.0 | 0.0 | 0.00 | 0.00 | 0.00 | 99 | 1052.7 |
| 20260901091203 | 66 | 229 | 0.0 | 0.0 | 0.00 | 0.00 | 0.00 | 99 | 1052.7 |
| 20260901090657 | 67 | 229 | 0.0 | 0.0 | 0.00 | 0.00 | 0.00 | 99 | 1052.6 |
| 20260901090152 | 66 | 229 | 0.0 | 0.0 | 0.00 | 0.00 | 0.00 | 99 | 1052.9 |
| 20260901085648 | 66 | 229 | 0.0 | 0.0 | 0.00 | 0.00 | 0.00 | 99 | 1053.0 |
| 20260901085144 | 66 | 229 | 0.0 | 0.0 | 0.00 | 0.00 | 0.00 | 99 | 1053.0 |
| 20260901084640 | 67 | 229 | 0.0 | 0.0 | 0.00 | 0.00 | 0.00 | 99 | 1053.1 |
| 20260901084136 | 66 | 229 | 0.0 | 0.0 | 0.00 | 0.00 | 0.00 | 99 | 1052.9 |
| 20260901083635 | 66 | 229 | 0.0 | 0.0 | 0.00 | 0.00 | 0.00 | 99 | 1052.8 |
| 20260901083134 | 66 | 229 | 0.0 | 0.0 | 0.00 | 0.00 | 0.00 | 99 | 1052.8 |
| 20260901082633 | 66 | 229 | 0.0 | 0.0 | 0.00 | 0.00 | 0.00 | 99 | 1052.9 |
| 20260901082129 | 66 | 229 | 0.0 | 0.0 | 0.00 | 0.00 | 0.00 | 99 | 1052.7 |
| 20260901081625 | 66 | 229 | 0.0 | 0.0 | 0.00 | 0.00 | 0.00 | 99 | 1052.9 |
| 20260901081120 | 67 | 229 | 0.0 | 0.0 | 0.00 | 0.00 | 0.00 | 99 | 1053.0 |
| 20260901080614 | 67 | 229 | 0.0 | 0.0 | 0.00 | 0.00 | 0.00 | 99 | 1052.8 |
| 20260901080113 | 67 | 229 | 0.0 | 0.0 | 0.00 | 0.00 | 0.00 | 99 | 1052.8 |
| 20260901075608 | 67 | 236 | 0.0 | 0.0 | 0.00 | 0.00 | 0.00 | 99 | 1052.9 |
| 20260901075107 | 67 | 236 | 0.0 | 0.0 | 0.00 | 0.00 | 0.00 | 99 | 1052.9 |
| 20260901074602 | 66 | 236 | 0.0 | 0.0 | 0.00 | 0.00 | 0.00 | 99 | 1053.0 |
| 20260901074057 | 66 | 236 | 0.0 | 0.0 | 0.00 | 0.00 | 0.00 | 99 | 1053.0 |
| 20260901073554 | 67 | 236 | 0.0 | 0.0 | 0.00 | 0.00 | 0.00 | 99 | 1053.0 |
| 20260901073053 | 67 | 236 | 0.0 | 0.0 | 0.00 | 0.00 | 0.00 | 99 | 1052.9 |
| 20260901072549 | 67 | 236 | 0.0 | 0.0 | 0.00 | 0.00 | 0.00 | 99 | 1053.0 |
| 20260901072043 | 67 | 240 | 0.0 | 0.0 | 0.00 | 0.00 | 0.00 | 99 | 1053.1 |
| 20260901071538 | 67 | 242 | 0.0 | 0.0 | 0.00 | 0.00 | 0.00 | 99 | 1053.0 |
| 20260901071036 | 67 | 244 | 0.0 | 0.0 | 0.00 | 0.00 | 0.00 | 99 | 1052.9 |
| 20260901070532 | 68 | 244 | 0.0 | 0.0 | 0.00 | 0.00 | 0.00 | 99 | 1053.0 |
| 20260901070027 | 68 | 260 | 0.0 | 1.0 | 0.00 | 0.00 | 0.00 | 99 | 1053.0 |
| 20260901065521 | 68 | 242 | 0.0 | 0.0 | 0.00 | 0.00 | 0.00 | 99 | 1053.1 |
| 20260901065016 | 68 | 244 | 0.0 | 0.0 | 0.00 | 0.00 | 0.00 | 99 | 1053.0 |
| 20260901064513 | 68 | 248 | 0.0 | 0.0 | 0.00 | 0.00 | 0.00 | 99 | 1053.2 |
| 20260901064009 | 69 | 234 | 0.0 | 0.0 | 0.00 | 0.00 | 0.00 | 99 | 1052.9 |
| 20260901063506 | 68 | 234 | 0.0 | 0.0 | 0.00 | 0.00 | 0.00 | 99 | 1053.0 |
| 20260901063002 | 69 | 234 | 0.0 | 0.0 | 0.00 | 0.00 | 0.00 | 99 | 1053.1 |
| 20260901062457 | 69 | 234 | 0.0 | 0.0 | 0.00 | 0.00 | 0.00 | 99 | 1053.2 |
| 20260901061953 | 69 | 234 | 0.0 | 0.0 | 0.00 | 0.00 | 0.00 | 99 | 1053.1 |
| 20260901061449 | 69 | 235 | 0.0 | 0.0 | 0.00 | 0.00 | 0.00 | 99 | 1053.1 |
| 20260901060948 | 69 | 233 | 0.0 | 0.0 | 0.00 | 0.00 | 0.00 | 99 | 1053.0 |
| 20260901060443 | 69 | 233 | 0.0 | 0.0 | 0.00 | 0.00 | 0.00 | 99 | 1052.9 |
| 20260901055938 | 69 | 233 | 0.0 | 0.0 | 0.00 | 0.00 | 0.00 | 99 | 1053.1 |
| 20260901055435 | 69 | 233 | 0.0 | 0.0 | 0.00 | 0.00 | 0.00 | 99 | 1053.0 |
| 20260901054931 | 69 | 233 | 0.0 | 0.0 | 0.00 | 0.00 | 0.00 | 99 | 1053.0 |
| 20260901054428 | 69 | 233 | 0.0 | 0.0 | 0.00 | 0.00 | 0.00 | 99 | 1052.8 |
| 20260901053924 | 69 | 233 | 0.0 | 0.0 | 0.00 | 0.00 | 0.00 | 99 | 1052.9 |
| 20260901053419 | 70 | 233 | 0.0 | 0.0 | 0.00 | 0.00 | 0.00 | 99 | 1052.9 |
| 20260901052914 | 70 | 233 | 0.0 | 0.0 | 0.00 | 0.00 | 0.00 | 99 | 1052.9 |
| 20260901052409 | 70 | 233 | 0.0 | 0.0 | 0.00 | 0.00 | 0.00 | 99 | 1052.8 |
| 20260901051908 | 70 | 233 | 0.0 | 0.0 | 0.00 | 0.00 | 0.00 | 99 | 1052.9 |
| 20260901051404 | 71 | 233 | 0.0 | 0.0 | 0.00 | 0.00 | 0.00 | 99 | 1052.7 |
| 20260901050858 | 71 | 232 | 0.0 | 0.0 | 0.00 | 0.00 | 0.00 | 99 | 1052.7 |
| 20260901050354 | 70 | 232 | 0.0 | 0.0 | 0.00 | 0.00 | 0.00 | 99 | 1052.6 |
| 20260901045854 | 71 | 232 | 0.0 | 0.0 | 0.00 | 0.00 | 0.00 | 99 | 1052.8 |
| 20260901045353 | 71 | 232 | 0.0 | 0.0 | 0.00 | 0.00 | 0.00 | 99 | 1052.7 |
| 20260901044849 | 71 | 234 | 0.0 | 0.0 | 0.00 | 0.00 | 0.00 | 99 | 1052.5 |
| 20260901044345 | 71 | 234 | 0.0 | 0.0 | 0.00 | 0.00 | 0.00 | 99 | 1052.3 |
| 20260901043841 | 70 | 234 | 0.0 | 0.0 | 0.00 | 0.00 | 0.00 | 99 | 1052.5 |
| 20260901043337 | 70 | 234 | 0.0 | 0.0 | 0.00 | 0.00 | 0.00 | 99 | 1052.4 |
| 20260901042836 | 70 | 234 | 0.0 | 0.0 | 0.00 | 0.00 | 0.00 | 99 | 1052.5 |
| 20260901042331 | 70 | 234 | 0.0 | 0.0 | 0.00 | 0.00 | 0.00 | 99 | 1052.6 |
| 20260901041826 | 71 | 234 | 0.0 | 0.0 | 0.00 | 0.00 | 0.00 | 99 | 1052.2 |
| 20260901041321 | 71 | 234 | 0.0 | 0.0 | 0.00 | 0.00 | 0.00 | 99 | 1052.3 |
| 20260901040816 | 71 | 234 | 0.0 | 0.0 | 0.00 | 0.00 | 0.00 | 99 | 1052.2 |
| 20260901040315 | 71 | 234 | 0.0 | 0.0 | 0.00 | 0.00 | 0.00 | 99 | 1052.0 |
| 20260901035814 | 71 | 234 | 0.0 | 0.0 | 0.00 | 0.00 | 0.00 | 99 | 1052.3 |
| 20260901035313 | 72 | 234 | 0.0 | 0.0 | 0.00 | 0.00 | 0.00 | 99 | 1052.5 |
| 20260901034812 | 72 | 234 | 0.0 | 0.0 | 0.00 | 0.00 | 0.00 | 99 | 1052.4 |
| 20260901034307 | 72 | 234 | 0.0 | 0.0 | 0.00 | 0.00 | 0.00 | 99 | 1052.4 |
| 20260901033802 | 73 | 234 | 0.0 | 1.0 | 0.00 | 0.00 | 0.00 | 99 | 1052.4 |
| 20260901033301 | 73 | 234 | 0.0 | 1.0 | 0.00 | 0.00 | 0.00 | 99 | 1052.4 |
| 20260901032800 | 73 | 221 | 0.0 | 0.0 | 0.00 | 0.00 | 0.00 | 99 | 1052.3 |
| 20260901032259 | 73 | 221 | 0.0 | 0.0 | 0.00 | 0.00 | 0.00 | 99 | 1052.2 |
| 20260901031755 | 73 | 221 | 0.0 | 0.0 | 0.00 | 0.00 | 0.00 | 99 | 1052.2 |
| 20260901031251 | 73 | 220 | 0.0 | 0.0 | 0.00 | 0.00 | 0.00 | 99 | 1052.3 |
| 20260901030750 | 73 | 220 | 0.0 | 1.0 | 0.00 | 0.00 | 0.00 | 99 | 1052.2 |
| 20260901030245 | 73 | 228 | 0.0 | 0.0 | 0.00 | 0.00 | 0.00 | 99 | 1052.3 |
| 20260901025745 | 74 | 228 | 0.0 | 0.0 | 0.00 | 0.00 | 0.00 | 99 | 1052.4 |
| 20260901025240 | 74 | 228 | 0.0 | 0.0 | 0.00 | 0.00 | 0.00 | 99 | 1052.3 |
| 20260901024735 | 74 | 228 | 0.0 | 1.0 | 0.00 | 0.00 | 0.00 | 99 | 1052.3 |
| 20260901024234 | 73 | 228 | 0.0 | 0.0 | 0.00 | 0.00 | 0.00 | 99 | 1052.0 |
| 20260901023732 | 73 | 228 | 0.0 | 0.0 | 0.00 | 0.00 | 0.00 | 99 | 1051.8 |
| 20260901023227 | 74 | 228 | 0.0 | 0.0 | 0.00 | 0.00 | 0.00 | 99 | 1052.0 |
| 20260901022723 | 74 | 228 | 0.0 | 0.0 | 0.00 | 0.00 | 0.00 | 98 | 1051.9 |
| 20260901022218 | 74 | 228 | 0.0 | 0.0 | 0.00 | 0.00 | 0.00 | 98 | 1051.9 |
| 20260901021713 | 74 | 228 | 0.0 | 0.0 | 0.00 | 0.00 | 0.00 | 98 | 1051.8 |
| 20260901021209 | 75 | 228 | 0.0 | 0.0 | 0.00 | 0.00 | 0.00 | 98 | 1051.9 |
| 20260901020704 | 75 | 228 | 0.0 | 0.0 | 0.00 | 0.00 | 0.00 | 98 | 1051.9 |
| 20260901020200 | 75 | 228 | 0.0 | 0.0 | 0.00 | 0.00 | 0.00 | 98 | 1051.8 |
| 20260901015654 | 75 | 228 | 0.0 | 0.0 | 0.00 | 0.00 | 0.00 | 98 | 1051.8 |
| 20260901015149 | 75 | 228 | 0.0 | 0.0 | 0.00 | 0.00 | 0.00 | 97 | 1051.8 |
| 20260901014648 | 75 | 228 | 0.0 | 0.0 | 0.00 | 0.00 | 0.00 | 97 | 1051.5 |
| 20260901014144 | 75 | 228 | 0.0 | 0.0 | 0.00 | 0.00 | 0.00 | 97 | 1051.7 |
| 20260901013640 | 75 | 228 | 0.0 | 0.0 | 0.00 | 0.00 | 0.00 | 97 | 1051.6 |
| 20260901013136 | 76 | 228 | 0.0 | 0.0 | 0.00 | 0.00 | 0.00 | 96 | 1051.6 |
| 20260901012631 | 76 | 228 | 0.0 | 0.0 | 0.00 | 0.00 | 0.00 | 96 | 1051.6 |
| 20260901012126 | 76 | 228 | 0.0 | 0.0 | 0.00 | 0.00 | 0.00 | 95 | 1051.5 |
| 20260901011622 | 77 | 218 | 0.0 | 0.0 | 0.00 | 0.00 | 0.00 | 95 | 1051.5 |
| 20260901011120 | 77 | 221 | 0.0 | 0.0 | 0.00 | 0.00 | 0.00 | 95 | 1051.4 |
| 20260901010615 | 77 | 235 | 0.0 | 0.0 | 0.00 | 0.00 | 0.00 | 94 | 1051.3 |
| 20260901010109 | 77 | 235 | 0.0 | 0.0 | 0.00 | 0.00 | 0.00 | 94 | 1051.3 |
| 20260901005604 | 78 | 235 | 0.0 | 0.0 | 0.00 | 0.00 | 0.00 | 93 | 1051.4 |
| 20260901005059 | 78 | 235 | 0.0 | 0.0 | 0.00 | 0.00 | 0.00 | 92 | 1051.3 |
| 20260901004558 | 78 | 234 | 0.0 | 0.0 | 0.00 | 0.00 | 0.00 | 91 | 1051.3 |
| 20260901004053 | 79 | 233 | 0.0 | 0.0 | 0.00 | 0.00 | 0.00 | 91 | 1051.3 |
| 20260901003549 | 79 | 241 | 0.0 | 0.0 | 0.00 | 0.00 | 0.00 | 90 | 1051.3 |
| 20260901003046 | 80 | 241 | 0.0 | 0.0 | 0.00 | 0.00 | 0.00 | 89 | 1051.2 |
| 20260901002546 | 80 | 241 | 0.0 | 0.0 | 0.00 | 0.00 | 0.00 | 88 | 1051.2 |
| 20260901002042 | 80 | 241 | 0.0 | 0.0 | 0.00 | 0.00 | 0.00 | 88 | 1051.2 |
| 20260901001536 | 81 | 244 | 0.0 | 0.0 | 0.00 | 0.00 | 0.00 | 87 | 1051.3 |
| 20260901001031 | 81 | 245 | 0.0 | 1.0 | 0.00 | 0.00 | 0.00 | 86 | 1051.4 |
| 20260901000526 | 82 | 230 | 0.0 | 0.0 | 0.00 | 0.00 | 0.00 | 85 | 1051.1 |
| 20260901000022 | 82 | 228 | 0.0 | 0.0 | 0.00 | 0.00 | 0.00 | 85 | 1051.1 |
| 20260831235515 | 81 | 237 | 0.0 | 0.0 | 0.00 | 0.00 | 0.00 | 85 | 1051.2 |
| 20260831235011 | 82 | 234 | 0.0 | 0.0 | 0.00 | 0.00 | 0.00 | 85 | 1051.2 |
| 20260831234505 | 82 | 230 | 0.0 | 0.0 | 0.00 | 0.00 | 0.00 | 84 | 1051.0 |
| 20260831234001 | 82 | 230 | 0.0 | 0.0 | 0.00 | 0.00 | 0.00 | 84 | 1051.2 |
| 20260831233455 | 82 | 231 | 0.0 | 1.0 | 0.00 | 0.00 | 0.00 | 84 | 1051.3 |
| 20260831232951 | 83 | 232 | 0.0 | 0.0 | 0.00 | 0.00 | 0.00 | 83 | 1051.1 |
| 20260831232446 | 83 | 234 | 0.0 | 1.0 | 0.00 | 0.00 | 0.00 | 83 | 1051.2 |
| 20260831231942 | 83 | 241 | 0.0 | 0.0 | 0.00 | 0.00 | 0.00 | 83 | 1051.2 |